Location: Azul
(36.7830°S, 59.8500°W)
Time: 20:39:06
(UTC-03:00)

RS-44 - Pass Details

Date: 22 September 2024
Orbit: 1174 x 1511 km, 82.5° (Epoch: 11 October)

Event Time Altitude Azimuth Distance (km) Brightness Sun altitude
Rises 01:42:35 0° 177° (S) 4,454 ? -51.5°
Reaches altitude 10° 01:45:52 10° 166° (SSE) 3,524 ? -51.3°
Enters shadow 01:50:50 27° 133° (SE) 2,513 ? -50.9°
